date,time,press
2015-07-01,00:00,867.27
2015-07-01,01:00,884.63
2015-07-01,02:00,898.74
2015-07-01,03:00,904.16
2015-07-01,04:00,921.52
2015-07-01,05:00,920.44
2015-07-01,06:00,930.2
2015-07-01,07:00,930.2
2015-07-01,08:00,911.76
2015-07-01,09:00,893.31
2015-07-01,10:00,870.52
2015-07-01,11:00,-999
2015-07-01,12:00,-999
2015-07-01,13:00,-999
2015-07-01,14:00,-999
2015-07-01,15:00,-999
2015-07-01,16:00,865.1
2015-07-01,17:00,877.03
2015-07-01,18:00,918.27
2015-07-01,19:00,930.2
2015-07-01,20:00,945.39
2015-07-01,21:00,954.07
2015-07-01,22:00,959.5
2015-07-01,23:00,944.31
2015-07-02,00:00,930.2
2015-07-02,01:00,929.12
2015-07-02,02:00,931.29
2015-07-02,03:00,932.37
2015-07-02,04:00,939.97
2015-07-02,05:00,942.14
2015-07-02,06:00,944.31
2015-07-02,07:00,939.97
2015-07-02,08:00,923.69
2015-07-02,09:00,891.14
2015-07-02,10:00,891.14
2015-07-02,11:00,850.99
2015-07-02,12:00,-999
2015-07-02,13:00,-999
2015-07-02,14:00,-999
2015-07-02,15:00,854.25
2015-07-02,16:00,864.01
2015-07-02,17:00,923.69
2015-07-02,18:00,929.12
2015-07-02,19:00,929.12
2015-07-02,20:00,930.2
2015-07-02,21:00,944.31
2015-07-02,22:00,933.46
2015-07-02,23:00,933.46
2015-07-03,00:00,938.88
2015-07-03,01:00,944.31
2015-07-03,02:00,935.63
2015-07-03,03:00,937.8
2015-07-03,04:00,938.88
2015-07-03,05:00,939.97
2015-07-03,06:00,938.88
2015-07-03,07:00,932.37
2015-07-03,08:00,922.61
2015-07-03,09:00,883.54
2015-07-03,10:00,856.42
2015-07-03,11:00,877.03
2015-07-03,12:00,862.93
2015-07-03,13:00,-999
2015-07-03,14:00,-999
2015-07-03,15:00,-999
2015-07-03,16:00,-999
2015-07-03,17:00,-999
2015-07-03,18:00,-999
2015-07-03,19:00,-999
2015-07-03,20:00,-999
2015-07-03,21:00,-999
2015-07-03,22:00,853.16
2015-07-03,23:00,869.44
2015-07-04,00:00,886.8
2015-07-04,01:00,898.74
2015-07-04,02:00,907.42
2015-07-04,03:00,910.67
2015-07-04,04:00,917.18
2015-07-04,05:00,918.27
2015-07-04,06:00,920.44
2015-07-04,07:00,919.35
2015-07-04,08:00,909.59
2015-07-04,09:00,888.97
2015-07-04,10:00,866.18
2015-07-04,11:00,-999
2015-07-04,12:00,-999
2015-07-04,13:00,-999
2015-07-04,14:00,-999
2015-07-04,15:00,-999
2015-07-04,16:00,-999
2015-07-04,17:00,-999
2015-07-04,18:00,-999
2015-07-04,19:00,-999
2015-07-04,20:00,-999
2015-07-04,21:00,-999
2015-07-04,22:00,-999
2015-07-04,23:00,-999
2015-07-05,00:00,-999
2015-07-05,01:00,858.59
2015-07-05,02:00,881.37
2015-07-05,03:00,893.31
2015-07-05,04:00,911.76
2015-07-05,05:00,918.27
2015-07-05,06:00,913.93
2015-07-05,07:00,917.18
2015-07-05,08:00,911.76
2015-07-05,09:00,853.16
2015-07-05,10:00,-999
2015-07-05,11:00,-999
2015-07-05,12:00,-999
2015-07-05,13:00,-999
2015-07-05,14:00,-999
2015-07-05,15:00,-999
2015-07-05,16:00,-999
2015-07-05,17:00,-999
2015-07-05,18:00,-999
2015-07-05,19:00,-999
2015-07-05,20:00,-999
2015-07-05,21:00,860.76
2015-07-05,22:00,869.44
2015-07-05,23:00,880.29
2015-07-06,00:00,898.74
2015-07-06,01:00,906.33
2015-07-06,02:00,915.01
2015-07-06,03:00,922.61
2015-07-06,04:00,929.12
2015-07-06,05:00,932.37
2015-07-06,06:00,944.31
2015-07-06,07:00,945.39
2015-07-06,08:00,942.14
2015-07-06,09:00,922.61
2015-07-06,10:00,868.35
2015-07-06,11:00,864.01
2015-07-06,12:00,-999
2015-07-06,13:00,-999
2015-07-06,14:00,-999
2015-07-06,15:00,-999
2015-07-06,16:00,-999
2015-07-06,17:00,869.44
2015-07-06,18:00,903.08
2015-07-06,19:00,967.1
2015-07-06,20:00,967.1
2015-07-06,21:00,952.99
2015-07-06,22:00,955.16
2015-07-06,23:00,956.24
2015-07-07,00:00,956.24
2015-07-07,01:00,950.82
2015-07-07,02:00,955.16
2015-07-07,03:00,950.82
2015-07-07,04:00,938.88
2015-07-07,05:00,930.2
2015-07-07,06:00,941.05
2015-07-07,07:00,945.39
2015-07-07,08:00,923.69
2015-07-07,09:00,892.23
2015-07-07,10:00,853.16
2015-07-07,11:00,-999
2015-07-07,12:00,-999
2015-07-07,13:00,-999
2015-07-07,14:00,-999
2015-07-07,15:00,900.91
2015-07-07,16:00,-999
2015-07-07,17:00,898.74
2015-07-07,18:00,921.52
2015-07-07,19:00,936.71
2015-07-07,20:00,941.05
2015-07-07,21:00,935.63
2015-07-07,22:00,946.48
2015-07-07,23:00,928.03
2015-07-08,00:00,905.25
2015-07-08,01:00,888.97
2015-07-08,02:00,890.06
2015-07-08,03:00,884.63
2015-07-08,04:00,890.06
2015-07-08,05:00,890.06
2015-07-08,06:00,890.06
2015-07-08,07:00,892.23
2015-07-08,08:00,893.31
2015-07-08,09:00,-999
2015-07-08,10:00,-999
2015-07-08,11:00,-999
2015-07-08,12:00,-999
2015-07-08,13:00,-999
2015-07-08,14:00,-999
2015-07-08,15:00,-999
2015-07-08,16:00,882.46
2015-07-08,17:00,858.59
2015-07-08,18:00,867.27
2015-07-08,19:00,904.16
2015-07-08,20:00,874.86
2015-07-08,21:00,-999
2015-07-08,22:00,-999
2015-07-08,23:00,-999
2015-07-09,00:00,-999
2015-07-09,01:00,856.42
2015-07-09,02:00,858.59
2015-07-09,03:00,861.84
2015-07-09,04:00,861.84
2015-07-09,05:00,868.35
2015-07-09,06:00,867.27
2015-07-09,07:00,867.27
2015-07-09,08:00,865.1
2015-07-09,09:00,867.27
2015-07-09,10:00,-999
2015-07-09,11:00,-999
2015-07-09,12:00,859.67
2015-07-09,13:00,866.18
2015-07-09,14:00,-999
2015-07-09,15:00,859.67
2015-07-09,16:00,-999
2015-07-09,17:00,-999
2015-07-09,18:00,-999
2015-07-09,19:00,-999
2015-07-09,20:00,857.5
2015-07-09,21:00,874.86
2015-07-09,22:00,858.59
2015-07-09,23:00,860.76
2015-07-10,00:00,862.93
2015-07-10,01:00,869.44
2015-07-10,02:00,861.84
2015-07-10,03:00,866.18
2015-07-10,04:00,872.69
2015-07-10,05:00,883.54
2015-07-10,06:00,888.97
2015-07-10,07:00,885.71
2015-07-10,08:00,888.97
2015-07-10,09:00,881.37
2015-07-10,10:00,861.84
2015-07-10,11:00,857.5
2015-07-10,12:00,-999
2015-07-10,13:00,-999
2015-07-10,14:00,-999
2015-07-10,15:00,-999
2015-07-10,16:00,-999
2015-07-10,17:00,-999
2015-07-10,18:00,-999
2015-07-10,19:00,874.86
2015-07-10,20:00,903.08
2015-07-10,21:00,912.84
2015-07-10,22:00,896.57
2015-07-10,23:00,861.84
2015-07-11,00:00,871.61
2015-07-11,01:00,880.29
2015-07-11,02:00,886.8
2015-07-11,03:00,896.57
2015-07-11,04:00,904.16
2015-07-11,05:00,910.67
2015-07-11,06:00,913.93
2015-07-11,07:00,910.67
2015-07-11,08:00,892.23
2015-07-11,09:00,-999
2015-07-11,10:00,-999
2015-07-11,11:00,-999
2015-07-11,12:00,-999
2015-07-11,13:00,-999
2015-07-11,14:00,-999
2015-07-11,15:00,-999
2015-07-11,16:00,-999
2015-07-11,17:00,-999
2015-07-11,18:00,864.01
2015-07-11,19:00,884.63
2015-07-11,20:00,922.61
2015-07-11,21:00,893.31
2015-07-11,22:00,874.86
2015-07-11,23:00,877.03
2015-07-12,00:00,885.71
2015-07-12,01:00,899.82
2015-07-12,02:00,910.67
2015-07-12,03:00,908.5
2015-07-12,04:00,900.91
2015-07-12,05:00,898.74
2015-07-12,06:00,901.99
2015-07-12,07:00,881.37
2015-07-12,08:00,857.5
2015-07-12,09:00,-999
2015-07-12,10:00,-999
2015-07-12,11:00,-999
2015-07-12,12:00,-999
2015-07-12,13:00,-999
2015-07-12,14:00,-999
2015-07-12,15:00,-999
2015-07-12,16:00,-999
2015-07-12,17:00,865.1
2015-07-12,18:00,897.65
2015-07-12,19:00,896.57
2015-07-12,20:00,937.8
2015-07-12,21:00,910.67
2015-07-12,22:00,906.33
2015-07-12,23:00,910.67
2015-07-13,00:00,912.84
2015-07-13,01:00,903.08
2015-07-13,02:00,904.16
2015-07-13,03:00,885.71
2015-07-13,04:00,890.06
2015-07-13,05:00,894.4
2015-07-13,06:00,892.23
2015-07-13,07:00,886.8
2015-07-13,08:00,868.35
2015-07-13,09:00,-999
2015-07-13,10:00,-999
2015-07-13,11:00,-999
2015-07-13,12:00,-999
2015-07-13,13:00,-999
2015-07-13,14:00,-999
2015-07-13,15:00,-999
2015-07-13,16:00,-999
2015-07-13,17:00,881.37
2015-07-13,18:00,891.14
2015-07-13,19:00,870.52
2015-07-13,20:00,887.89
2015-07-13,21:00,917.18
2015-07-13,22:00,887.89
2015-07-13,23:00,880.29
2015-07-14,00:00,869.44
2015-07-14,01:00,871.61
2015-07-14,02:00,869.44
2015-07-14,03:00,873.78
2015-07-14,04:00,871.61
2015-07-14,05:00,872.69
2015-07-14,06:00,875.95
2015-07-14,07:00,877.03
2015-07-14,08:00,857.5
2015-07-14,09:00,-999
2015-07-14,10:00,-999
2015-07-14,11:00,-999
2015-07-14,12:00,-999
2015-07-14,13:00,-999
2015-07-14,14:00,-999
2015-07-14,15:00,-999
2015-07-14,16:00,-999
2015-07-14,17:00,-999
2015-07-14,18:00,882.46
2015-07-14,19:00,907.42
2015-07-14,20:00,937.8
2015-07-14,21:00,961.67
2015-07-14,22:00,977.95
2015-07-14,23:00,982.29
2015-07-15,00:00,976.86
2015-07-15,01:00,975.78
2015-07-15,02:00,955.16
2015-07-15,03:00,928.03
2015-07-15,04:00,921.52
2015-07-15,05:00,907.42
2015-07-15,06:00,900.91
2015-07-15,07:00,922.61
2015-07-15,08:00,903.08
2015-07-15,09:00,870.52
2015-07-15,10:00,-999
2015-07-15,11:00,852.08
2015-07-15,12:00,-999
2015-07-15,13:00,-999
2015-07-15,14:00,-999
2015-07-15,15:00,-999
2015-07-15,16:00,-999
2015-07-15,17:00,861.84
2015-07-15,18:00,926.95
2015-07-15,19:00,948.65
2015-07-15,20:00,935.63
2015-07-15,21:00,890.06
2015-07-15,22:00,915.01
2015-07-15,23:00,908.5
2015-07-16,00:00,898.74
2015-07-16,01:00,900.91
2015-07-16,02:00,909.59
2015-07-16,03:00,907.42
2015-07-16,04:00,900.91
2015-07-16,05:00,893.31
2015-07-16,06:00,887.89
2015-07-16,07:00,908.5
2015-07-16,08:00,907.42
2015-07-16,09:00,907.42
2015-07-16,10:00,884.63
2015-07-16,11:00,-999
2015-07-16,12:00,-999
2015-07-16,13:00,-999
2015-07-16,14:00,-999
2015-07-16,15:00,-999
2015-07-16,16:00,852.08
2015-07-16,17:00,871.61
2015-07-16,18:00,917.18
2015-07-16,19:00,912.84
2015-07-16,20:00,930.2
2015-07-16,21:00,937.8
2015-07-16,22:00,881.37
2015-07-16,23:00,896.57
2015-07-17,00:00,887.89
2015-07-17,01:00,893.31
2015-07-17,02:00,933.46
2015-07-17,03:00,969.27
2015-07-17,04:00,971.44
2015-07-17,05:00,964.93
2015-07-17,06:00,950.82
2015-07-17,07:00,945.39
2015-07-17,08:00,938.88
2015-07-17,09:00,928.03
2015-07-17,10:00,880.29
2015-07-17,11:00,877.03
2015-07-17,12:00,860.76
2015-07-17,13:00,-999
2015-07-17,14:00,-999
2015-07-17,15:00,873.78
2015-07-17,16:00,901.99
2015-07-17,17:00,888.97
2015-07-17,18:00,850.99
2015-07-17,19:00,884.63
2015-07-17,20:00,858.59
2015-07-17,21:00,886.8
2015-07-17,22:00,888.97
2015-07-17,23:00,880.29
2015-07-18,00:00,880.29
2015-07-18,01:00,909.59
2015-07-18,02:00,916.1
2015-07-18,03:00,931.29
2015-07-18,04:00,950.82
2015-07-18,05:00,942.14
2015-07-18,06:00,943.22
2015-07-18,07:00,946.48
2015-07-18,08:00,945.39
2015-07-18,09:00,917.18
2015-07-18,10:00,919.35
2015-07-18,11:00,898.74
2015-07-18,12:00,882.46
2015-07-18,13:00,862.93
2015-07-18,14:00,867.27
2015-07-18,15:00,869.44
2015-07-18,16:00,872.69
2015-07-18,17:00,868.35
2015-07-18,18:00,886.8
2015-07-18,19:00,906.33
2015-07-18,20:00,920.44
2015-07-18,21:00,916.1
2015-07-18,22:00,910.67
2015-07-18,23:00,896.57
2015-07-19,00:00,919.35
2015-07-19,01:00,925.86
2015-07-19,02:00,918.27
2015-07-19,03:00,928.03
2015-07-19,04:00,935.63
2015-07-19,05:00,936.71
2015-07-19,06:00,946.48
2015-07-19,07:00,939.97
2015-07-19,08:00,923.69
2015-07-19,09:00,911.76
2015-07-19,10:00,884.63
2015-07-19,11:00,877.03
2015-07-19,12:00,-999
2015-07-19,13:00,-999
2015-07-19,14:00,-999
2015-07-19,15:00,865.1
2015-07-19,16:00,867.27
2015-07-19,17:00,878.12
2015-07-19,18:00,956.24
2015-07-19,19:00,969.27
2015-07-19,20:00,969.27
2015-07-19,21:00,969.27
2015-07-19,22:00,964.93
2015-07-19,23:00,959.5
2015-07-20,00:00,968.18
2015-07-20,01:00,971.44
2015-07-20,02:00,969.27
2015-07-20,03:00,966.01
2015-07-20,04:00,960.58
2015-07-20,05:00,958.41
2015-07-20,06:00,950.82
2015-07-20,07:00,949.73
2015-07-20,08:00,954.07
2015-07-20,09:00,939.97
2015-07-20,10:00,912.84
2015-07-20,11:00,894.4
2015-07-20,12:00,904.16
2015-07-20,13:00,884.63
2015-07-20,14:00,870.52
2015-07-20,15:00,885.71
2015-07-20,16:00,878.12
2015-07-20,17:00,898.74
2015-07-20,18:00,919.35
2015-07-20,19:00,925.86
2015-07-20,20:00,934.54
2015-07-20,21:00,967.1
2015-07-20,22:00,972.52
2015-07-20,23:00,960.58
2015-07-21,00:00,944.31
2015-07-21,01:00,946.48
2015-07-21,02:00,941.05
2015-07-21,03:00,936.71
2015-07-21,04:00,936.71
2015-07-21,05:00,936.71
2015-07-21,06:00,935.63
2015-07-21,07:00,934.54
2015-07-21,08:00,933.46
2015-07-21,09:00,916.1
2015-07-21,10:00,910.67
2015-07-21,11:00,893.31
2015-07-21,12:00,869.44
2015-07-21,13:00,864.01
2015-07-21,14:00,869.44
2015-07-21,15:00,850.99
2015-07-21,16:00,869.44
2015-07-21,17:00,861.84
2015-07-21,18:00,903.08
2015-07-21,19:00,915.01
2015-07-21,20:00,928.03
2015-07-21,21:00,930.2
2015-07-21,22:00,935.63
2015-07-21,23:00,939.97
2015-07-22,00:00,921.52
2015-07-22,01:00,908.5
2015-07-22,02:00,883.54
2015-07-22,03:00,892.23
2015-07-22,04:00,910.67
2015-07-22,05:00,910.67
2015-07-22,06:00,910.67
2015-07-22,07:00,897.65
2015-07-22,08:00,878.12
2015-07-22,09:00,859.67
2015-07-22,10:00,-999
2015-07-22,11:00,-999
2015-07-22,12:00,-999
2015-07-22,13:00,-999
2015-07-22,14:00,-999
2015-07-22,15:00,-999
2015-07-22,16:00,-999
2015-07-22,17:00,-999
2015-07-22,18:00,853.16
2015-07-22,19:00,872.69
2015-07-22,20:00,918.27
2015-07-22,21:00,918.27
2015-07-22,22:00,933.46
2015-07-22,23:00,934.54
2015-07-23,00:00,939.97
2015-07-23,01:00,936.71
2015-07-23,02:00,942.14
2015-07-23,03:00,949.73
2015-07-23,04:00,954.07
2015-07-23,05:00,956.24
2015-07-23,06:00,959.5
2015-07-23,07:00,957.33
2015-07-23,08:00,944.31
2015-07-23,09:00,864.01
2015-07-23,10:00,-999
2015-07-23,11:00,-999
2015-07-23,12:00,-999
2015-07-23,13:00,-999
2015-07-23,14:00,-999
2015-07-23,15:00,-999
2015-07-23,16:00,-999
2015-07-23,17:00,-999
2015-07-23,18:00,-999
2015-07-23,19:00,-999
2015-07-23,20:00,885.71
2015-07-23,21:00,910.67
2015-07-23,22:00,908.5
2015-07-23,23:00,929.12
2015-07-24,00:00,937.8
2015-07-24,01:00,942.14
2015-07-24,02:00,947.56
2015-07-24,03:00,946.48
2015-07-24,04:00,943.22
2015-07-24,05:00,909.59
2015-07-24,06:00,865.1
2015-07-24,07:00,859.67
2015-07-24,08:00,-999
2015-07-24,09:00,-999
2015-07-24,10:00,-999
2015-07-24,11:00,-999
2015-07-24,12:00,-999
2015-07-24,13:00,-999
2015-07-24,14:00,-999
2015-07-24,15:00,-999
2015-07-24,16:00,-999
2015-07-24,17:00,-999
2015-07-24,18:00,-999
2015-07-24,19:00,-999
2015-07-24,20:00,-999
2015-07-24,21:00,892.23
2015-07-24,22:00,900.91
2015-07-24,23:00,915.01
2015-07-25,00:00,913.93
2015-07-25,01:00,915.01
2015-07-25,02:00,923.69
2015-07-25,03:00,929.12
2015-07-25,04:00,904.16
2015-07-25,05:00,866.18
2015-07-25,06:00,862.93
2015-07-25,07:00,862.93
2015-07-25,08:00,854.25
2015-07-25,09:00,-999
2015-07-25,10:00,-999
2015-07-25,11:00,-999
2015-07-25,12:00,-999
2015-07-25,13:00,-999
2015-07-25,14:00,-999
2015-07-25,15:00,-999
2015-07-25,16:00,-999
2015-07-25,17:00,-999
2015-07-25,18:00,-999
2015-07-25,19:00,-999
2015-07-25,20:00,852.08
2015-07-25,21:00,-999
2015-07-25,22:00,870.52
2015-07-25,23:00,880.29
2015-07-26,00:00,895.48
2015-07-26,01:00,903.08
2015-07-26,02:00,945.39
2015-07-26,03:00,948.65
2015-07-26,04:00,945.39
2015-07-26,05:00,947.56
2015-07-26,06:00,922.61
2015-07-26,07:00,901.99
2015-07-26,08:00,878.12
2015-07-26,09:00,-999
2015-07-26,10:00,-999
2015-07-26,11:00,-999
2015-07-26,12:00,-999
2015-07-26,13:00,-999
2015-07-26,14:00,-999
2015-07-26,15:00,-999
2015-07-26,16:00,-999
2015-07-26,17:00,-999
2015-07-26,18:00,-999
2015-07-26,19:00,861.84
2015-07-26,20:00,878.12
2015-07-26,21:00,899.82
2015-07-26,22:00,886.8
2015-07-26,23:00,917.18
2015-07-27,00:00,860.76
2015-07-27,01:00,-999
2015-07-27,02:00,-999
2015-07-27,03:00,-999
2015-07-27,04:00,-999
2015-07-27,05:00,-999
2015-07-27,06:00,-999
2015-07-27,07:00,-999
2015-07-27,08:00,-999
2015-07-27,09:00,-999
2015-07-27,10:00,-999
2015-07-27,11:00,-999
2015-07-27,12:00,-999
2015-07-27,13:00,-999
2015-07-27,14:00,-999
2015-07-27,15:00,955.16
2015-07-27,16:00,969.27
2015-07-27,17:00,937.8
2015-07-27,18:00,941.05
2015-07-27,19:00,922.61
2015-07-27,20:00,918.27
2015-07-27,21:00,916.1
2015-07-27,22:00,921.52
2015-07-27,23:00,916.1
2015-07-28,00:00,916.1
2015-07-28,01:00,923.69
2015-07-28,02:00,923.69
2015-07-28,03:00,920.44
2015-07-28,04:00,916.1
2015-07-28,05:00,909.59
2015-07-28,06:00,910.67
2015-07-28,07:00,913.93
2015-07-28,08:00,904.16
2015-07-28,09:00,891.14
2015-07-28,10:00,-999
2015-07-28,11:00,-999
2015-07-28,12:00,-999
2015-07-28,13:00,-999
2015-07-28,14:00,-999
2015-07-28,15:00,-999
2015-07-28,16:00,-999
2015-07-28,17:00,850.99
2015-07-28,18:00,865.1
2015-07-28,19:00,916.1
2015-07-28,20:00,911.76
2015-07-28,21:00,942.14
2015-07-28,22:00,955.16
2015-07-28,23:00,930.2
2015-07-29,00:00,938.88
2015-07-29,01:00,945.39
2015-07-29,02:00,945.39
2015-07-29,03:00,922.61
2015-07-29,04:00,925.86
2015-07-29,05:00,937.8
2015-07-29,06:00,948.65
2015-07-29,07:00,950.82
2015-07-29,08:00,948.65
2015-07-29,09:00,936.71
2015-07-29,10:00,901.99
2015-07-29,11:00,875.95
2015-07-29,12:00,-999
2015-07-29,13:00,-999
2015-07-29,14:00,-999
2015-07-29,15:00,853.16
2015-07-29,16:00,869.44
2015-07-29,17:00,878.12
2015-07-29,18:00,880.29
2015-07-29,19:00,906.33
2015-07-29,20:00,921.52
2015-07-29,21:00,925.86
2015-07-29,22:00,918.27
2015-07-29,23:00,-999
2015-07-30,00:00,-999
2015-07-30,01:00,-999
2015-07-30,02:00,-999
2015-07-30,03:00,-999
2015-07-30,04:00,-999
2015-07-30,05:00,-999
2015-07-30,06:00,-999
2015-07-30,07:00,-999
2015-07-30,08:00,-999
2015-07-30,09:00,-999
2015-07-30,10:00,-999
2015-07-30,11:00,-999
2015-07-30,12:00,-999
2015-07-30,13:00,937.8
2015-07-30,14:00,1065.84
2015-07-30,15:00,1072.35
2015-07-30,16:00,1076.69
2015-07-30,17:00,1079.94
2015-07-30,18:00,1073.43
2015-07-30,19:00,1059.33
2015-07-30,20:00,1070.18
2015-07-30,21:00,1070.18
2015-07-30,22:00,1066.92
2015-07-30,23:00,1068.01
2015-07-31,00:00,1069.09
2015-07-31,01:00,1065.84
2015-07-31,02:00,1061.5
2015-07-31,03:00,1053.9
2015-07-31,04:00,1050.65
2015-07-31,05:00,1047.39
2015-07-31,06:00,1050.65
2015-07-31,07:00,1050.65
2015-07-31,08:00,1050.65
2015-07-31,09:00,1049.56
2015-07-31,10:00,1048.48
2015-07-31,11:00,1052.82
2015-07-31,12:00,1044.14
2015-07-31,13:00,1026.77
2015-07-31,14:00,1041.96
2015-07-31,15:00,1044.14
2015-07-31,16:00,1053.9
2015-07-31,17:00,1052.82
2015-07-31,18:00,1052.82
2015-07-31,19:00,1061.5
2015-07-31,20:00,1057.16
2015-07-31,21:00,1069.09
2015-07-31,22:00,1058.24
2015-07-31,23:00,1050.65
